sat.trackr.live / text

‹ back to catalog

STARLINK-30799

NORAD 58121 · 2023-162D

PAYLOAD ACTIVE UNKNOWN

§ Identity

Operator
Country
US
Launch date
2023-10-22
Launch site
AFETR
Launch vehicle
Mass (kg)
RCS (m²)

Purposes: comms

External: N2YO · Heavens-Above · Gunter

§ Orbital elements

Epoch: 2026-05-25T03:51:12.530016Z

Period
94.27 min
Inclination
43.0049°
Eccentricity
0.0001035
Mean motion
15.27582538 rev/d
Perigee alt
482.3 km
Apogee alt
483.8 km
Semi-major
6,861.2 km
B*
3.6752e-5
RAAN
60.5023°
Arg perigee
271.8374°
Mean anomaly
88.2359°
Rev number
14,400

§ Raw data

STARLINK-307991 58121U 23162D   26145.16056169  .00000749  00000+0  36752-4 0  99992 58121  43.0049  60.5023 0001035 271.8374  88.2359 15.27582538144006

JSON: /api/v1/satellites/58121 · /tle

For live sub-satellite position, see the globe view (requires WebGL).

§ Visibility from observer

Set your observer location to see the next 7 days of passes ≥ 10°. The values pass through the URL so the page stays shareable.

No JS? Fill the form by hand. The geolocation button needs JavaScript.